^^
Paulen-Weather Station Historical Data
Daily Summary for February 16, 2020 Units:  Metric    English   Both
Daily Weekly Monthly Yearly Custom
  High: Low: Average:
Temperature: 9 °C 6 °C 7.7 °C
Dew Point: 8 °C 4 °C 6.5 °C
Humidity: 98% 80% 92%
Wind Speed: 74km/h 15km/h 34.4km/h
Wind Gust: 90km/h - -
Wind- - SSW
Pressure: 985.1 hPa 976.63 hPa -
Precipitation: 9.4 mm    
Historical Graphs
 
 
Tabular Data for February 16, 2020
Time Temperature Dew Point Pressure Wind Wind Speed Wind Gust Humidity Rainfall Rate (Hourly) solar
00:04 8 °C 8 °C 985.1 hPa S 64 km/h 76 km/h 97% 2.79 mm 0 W/m2
00:09 8 °C 8 °C 984.76 hPa SE 51 km/h 74 km/h 97% 2.79 mm 0 W/m2
00:14 8 °C 7 °C 984.76 hPa E 56 km/h 60 km/h 97% 3.05 mm 0 W/m2
00:19 8 °C 7 °C 984.08 hPa NE 62 km/h 69 km/h 97% 3.05 mm 0 W/m2
00:24 8 °C 7 °C 983.75 hPa NE 63 km/h 69 km/h 97% 3.05 mm 0 W/m2
00:29 8 °C 8 °C 983.75 hPa NE 62 km/h 72 km/h 97% 2.79 mm 0 W/m2
00:34 8 °C 8 °C 983.75 hPa WNW 66 km/h 72 km/h 97% 3.05 mm 0 W/m2
00:39 8 °C 8 °C 983.75 hPa WSW 66 km/h 76 km/h 97% 2.79 mm 0 W/m2
00:44 8 °C 8 °C 983.41 hPa NNE 74 km/h 90 km/h 97% 3.05 mm 0 W/m2
00:49 8 °C 8 °C 983.41 hPa NNE 69 km/h 74 km/h 97% 2.79 mm 0 W/m2
00:54 8 °C 8 °C 983.41 hPa S 66 km/h 72 km/h 97% 2.54 mm 0 W/m2
00:59 8 °C 8 °C 983.41 hPa NNE 67 km/h 66 km/h 97% 2.54 mm 0 W/m2
01:04 8 °C 8 °C 983.07 hPa NNE 65 km/h 82 km/h 97% 2.29 mm 0 W/m2
01:09 8 °C 8 °C 983.41 hPa SW 61 km/h 69 km/h 97% 2.03 mm 0 W/m2
01:14 8 °C 8 °C 983.41 hPa NW 64 km/h 74 km/h 97% 1.52 mm 0 W/m2
01:19 8 °C 8 °C 983.41 hPa N 54 km/h 66 km/h 97% 1.52 mm 0 W/m2
01:24 8 °C 8 °C 983.41 hPa NNW 53 km/h 60 km/h 97% 1.27 mm 0 W/m2
01:29 8 °C 8 °C 983.41 hPa SE 54 km/h 56 km/h 96% 1.02 mm 0 W/m2
01:34 9 °C 8 °C 983.41 hPa NNE 53 km/h 60 km/h 96% 0.76 mm 0 W/m2
01:39 9 °C 8 °C 983.41 hPa NNE 47 km/h 56 km/h 96% 0.76 mm 0 W/m2
01:44 9 °C 8 °C 983.41 hPa N 46 km/h 50 km/h 96% 0.51 mm 0 W/m2
01:49 9 °C 8 °C 983.41 hPa N 53 km/h 60 km/h 96% 0.51 mm 0 W/m2
01:54 9 °C 8 °C 982.73 hPa WSW 43 km/h 58 km/h 96% 0.51 mm 0 W/m2
01:59 9 °C 8 °C 982.73 hPa N 50 km/h 48 km/h 96% 0.51 mm 0 W/m2
02:04 9 °C 8 °C 982.73 hPa NNW 46 km/h 60 km/h 96% 0.25 mm 0 W/m2
02:09 9 °C 8 °C 983.07 hPa N 43 km/h 51 km/h 95% 0.25 mm 0 W/m2
02:14 9 °C 8 °C 983.41 hPa N 49 km/h 47 km/h 95% 0.25 mm 0 W/m2
02:19 9 °C 8 °C 983.75 hPa N 49 km/h 56 km/h 94% 0.25 mm 0 W/m2
02:24 9 °C 8 °C 983.75 hPa NNW 46 km/h 56 km/h 94% 0.25 mm 0 W/m2
02:29 9 °C 8 °C 984.08 hPa N 39 km/h 56 km/h 94% 0.25 mm 0 W/m2
02:34 9 °C 8 °C 984.08 hPa N 42 km/h 45 km/h 94% 0.25 mm 0 W/m2
02:39 9 °C 8 °C 984.08 hPa N 44 km/h 51 km/h 94% 0.25 mm 0 W/m2
02:44 9 °C 8 °C 984.42 hPa N 40 km/h 48 km/h 93% 0.25 mm 0 W/m2
02:49 9 °C 8 °C 984.42 hPa N 43 km/h 43 km/h 94% 0.25 mm 0 W/m2
02:54 9 °C 8 °C 984.42 hPa NNE 34 km/h 47 km/h 94% 0 mm 0 W/m2
02:59 9 °C 8 °C 984.42 hPa N 37 km/h 37 km/h 94% 0 mm 0 W/m2
03:04 9 °C 8 °C 984.42 hPa N 42 km/h 47 km/h 94% 0 mm 0 W/m2
03:09 9 °C 8 °C 984.42 hPa NW 48 km/h 51 km/h 94% 0 mm 0 W/m2
03:14 9 °C 8 °C 984.42 hPa N 48 km/h 53 km/h 94% 0 mm 0 W/m2
03:19 9 °C 8 °C 984.42 hPa NNE 40 km/h 60 km/h 94% 0 mm 0 W/m2
03:24 9 °C 8 °C 984.76 hPa N 37 km/h 43 km/h 93% 0 mm 0 W/m2
03:29 9 °C 8 °C 984.42 hPa N 44 km/h 58 km/h 93% 0 mm 0 W/m2
03:34 9 °C 7 °C 984.42 hPa NNW 34 km/h 53 km/h 93% 0 mm 0 W/m2
03:39 8 °C 7 °C 984.42 hPa N 38 km/h 43 km/h 93% 0 mm 0 W/m2
03:44 8 °C 7 °C 984.76 hPa NNW 37 km/h 43 km/h 93% 0 mm 0 W/m2
03:49 8 °C 7 °C 984.76 hPa N 38 km/h 42 km/h 93% 0 mm 0 W/m2
03:54 8 °C 7 °C 985.1 hPa N 35 km/h 39 km/h 93% 0 mm 0 W/m2
03:59 8 °C 7 °C 985.1 hPa NNE 31 km/h 39 km/h 93% 0 mm 0 W/m2
04:04 8 °C 7 °C 984.76 hPa N 36 km/h 39 km/h 92% 0 mm 0 W/m2
04:09 8 °C 7 °C 984.76 hPa N 30 km/h 37 km/h 92% 0 mm 0 W/m2
04:14 8 °C 7 °C 984.76 hPa N 31 km/h 37 km/h 92% 0 mm 0 W/m2
04:19 8 °C 7 °C 984.76 hPa N 32 km/h 35 km/h 92% 0 mm 0 W/m2
04:24 8 °C 7 °C 984.76 hPa N 32 km/h 34 km/h 92% 0 mm 0 W/m2
04:29 8 °C 7 °C 984.76 hPa NNE 31 km/h 40 km/h 92% 0 mm 0 W/m2
04:34 8 °C 7 °C 984.42 hPa N 32 km/h 39 km/h 92% 0 mm 0 W/m2
04:39 8 °C 7 °C 984.42 hPa N 30 km/h 39 km/h 92% 0 mm 0 W/m2
04:44 8 °C 7 °C 984.42 hPa N 28 km/h 35 km/h 92% 0 mm 0 W/m2
04:49 8 °C 7 °C 984.42 hPa N 33 km/h 35 km/h 92% 0 mm 0 W/m2
04:54 8 °C 7 °C 984.42 hPa N 31 km/h 40 km/h 92% 0 mm 0 W/m2
04:59 8 °C 7 °C 984.42 hPa NNE 30 km/h 40 km/h 92% 0 mm 0 W/m2
05:04 8 °C 7 °C 984.42 hPa N 25 km/h 40 km/h 93% 0 mm 0 W/m2
05:09 8 °C 7 °C 984.42 hPa N 30 km/h 32 km/h 93% 0 mm 0 W/m2
05:14 8 °C 7 °C 984.42 hPa N 31 km/h 39 km/h 93% 0 mm 0 W/m2
05:19 8 °C 7 °C 984.42 hPa N 30 km/h 37 km/h 93% 0 mm 0 W/m2
05:24 8 °C 7 °C 984.42 hPa W 31 km/h 32 km/h 94% 0 mm 0 W/m2
05:29 8 °C 7 °C 984.42 hPa NNE 37 km/h 37 km/h 94% 0 mm 0 W/m2
05:34 8 °C 7 °C 984.42 hPa NNE 34 km/h 42 km/h 94% 0 mm 0 W/m2
05:39 8 °C 7 °C 984.42 hPa NNE 32 km/h 37 km/h 94% 0 mm 0 W/m2
05:44 8 °C 7 °C 984.42 hPa WSW 31 km/h 35 km/h 94% 0 mm 0 W/m2
05:49 8 °C 7 °C 984.08 hPa NNE 34 km/h 35 km/h 94% 0 mm 0 W/m2
05:54 8 °C 7 °C 984.08 hPa NNE 36 km/h 42 km/h 94% 0 mm 0 W/m2
05:59 8 °C 7 °C 983.75 hPa NNE 40 km/h 45 km/h 94% 0 mm 0 W/m2
06:04 8 °C 7 °C 983.75 hPa NE 38 km/h 45 km/h 94% 0 mm 0 W/m2
06:09 8 °C 7 °C 983.75 hPa NNE 39 km/h 40 km/h 95% 0 mm 0 W/m2
06:14 8 °C 7 °C 983.41 hPa NNE 36 km/h 48 km/h 95% 0 mm 0 W/m2
06:19 8 °C 7 °C 983.41 hPa NNE 35 km/h 39 km/h 95% 0 mm 0 W/m2
06:24 8 °C 7 °C 983.07 hPa NE 31 km/h 42 km/h 95% 0 mm 0 W/m2
06:29 8 °C 7 °C 983.07 hPa N 36 km/h 34 km/h 96% 0 mm 0 W/m2
06:34 8 °C 7 °C 982.73 hPa NNE 41 km/h 39 km/h 96% 0 mm 0 W/m2
06:39 8 °C 7 °C 982.73 hPa NNE 35 km/h 43 km/h 96% 0.25 mm 0 W/m2
06:44 8 °C 7 °C 982.73 hPa NNE 37 km/h 42 km/h 96% 0.25 mm 0 W/m2
06:49 8 °C 7 °C 982.39 hPa NNE 37 km/h 40 km/h 96% 0.25 mm 0 W/m2
06:54 8 °C 7 °C 982.05 hPa NNE 37 km/h 39 km/h 96% 0.25 mm 0 W/m2
06:59 8 °C 7 °C 982.05 hPa NNE 37 km/h 43 km/h 96% 0.51 mm 0 W/m2
07:04 8 °C 7 °C 982.05 hPa SSE 38 km/h 39 km/h 96% 0.51 mm 0 W/m2
07:09 8 °C 7 °C 981.71 hPa SE 31 km/h 45 km/h 96% 0.51 mm 0 W/m2
07:14 8 °C 7 °C 981.38 hPa SSW 34 km/h 35 km/h 97% 0.76 mm 0 W/m2
07:19 8 °C 7 °C 981.38 hPa NE 32 km/h 37 km/h 97% 1.02 mm 0 W/m2
07:24 8 °C 7 °C 981.04 hPa WNW 27 km/h 35 km/h 97% 1.02 mm 0 W/m2
07:29 8 °C 7 °C 980.7 hPa SE 32 km/h 32 km/h 97% 1.27 mm 0 W/m2
07:34 8 °C 7 °C 980.7 hPa NE 27 km/h 35 km/h 97% 1.52 mm 0 W/m2
07:39 8 °C 7 °C 980.02 hPa NE 28 km/h 32 km/h 97% 1.52 mm 0 W/m2
07:44 8 °C 7 °C 980.02 hPa NE 29 km/h 34 km/h 97% 1.52 mm 0 W/m2
07:49 8 °C 7 °C 979.68 hPa SW 30 km/h 32 km/h 97% 1.52 mm 0 W/m2
07:54 8 °C 7 °C 979.34 hPa NE 29 km/h 34 km/h 97% 1.52 mm 0 W/m2
07:59 8 °C 7 °C 979.34 hPa SSE 32 km/h 32 km/h 98% 1.52 mm 0 W/m2
08:04 8 °C 7 °C 979.34 hPa ESE 28 km/h 39 km/h 98% 1.52 mm 0 W/m2
08:09 7 °C 7 °C 979.34 hPa NNE 29 km/h 32 km/h 98% 1.52 mm 0 W/m2
08:14 7 °C 7 °C 979.01 hPa NNE 29 km/h 32 km/h 98% 1.52 mm 0 W/m2
08:19 7 °C 7 °C 979.01 hPa NE 26 km/h 34 km/h 98% 1.52 mm 0 W/m2
08:24 7 °C 7 °C 978.33 hPa NNE 28 km/h 29 km/h 98% 1.52 mm 0 W/m2
08:29 8 °C 7 °C 978.33 hPa NNE 28 km/h 32 km/h 98% 1.52 mm 5 W/m2
08:34 8 °C 7 °C 977.65 hPa ENE 25 km/h 32 km/h 98% 1.27 mm 5 W/m2
08:39 8 °C 7 °C 977.65 hPa S 27 km/h 32 km/h 98% 1.02 mm 5 W/m2
08:44 7 °C 7 °C 977.31 hPa WSW 27 km/h 32 km/h 98% 0.76 mm 7 W/m2
08:49 7 °C 7 °C 977.31 hPa NNE 30 km/h 32 km/h 98% 0.76 mm 5 W/m2
08:54 8 °C 7 °C 976.97 hPa NNE 33 km/h 37 km/h 98% 0.51 mm 7 W/m2
08:59 8 °C 7 °C 976.63 hPa NNE 39 km/h 39 km/h 98% 0.76 mm 14 W/m2
09:04 8 °C 7 °C 976.63 hPa NNE 38 km/h 43 km/h 98% 0.51 mm 16 W/m2
09:09 8 °C 8 °C 976.63 hPa NNE 36 km/h 40 km/h 98% 0.51 mm 14 W/m2
09:14 8 °C 8 °C 976.63 hPa W 35 km/h 40 km/h 98% 0.51 mm 19 W/m2
09:19 8 °C 8 °C 976.63 hPa NW 35 km/h 45 km/h 98% 0.51 mm 19 W/m2
09:24 8 °C 8 °C 976.97 hPa N 32 km/h 39 km/h 98% 0.51 mm 16 W/m2
09:29 8 °C 8 °C 976.97 hPa NNE 31 km/h 35 km/h 98% 0.25 mm 9 W/m2
09:34 8 °C 8 °C 976.97 hPa W 31 km/h 34 km/h 98% 0.25 mm 19 W/m2
09:39 8 °C 8 °C 976.97 hPa NNE 35 km/h 37 km/h 98% 0.25 mm 19 W/m2
09:44 8 °C 8 °C 977.31 hPa N 33 km/h 43 km/h 98% 0.25 mm 25 W/m2
09:49 8 °C 8 °C 976.97 hPa NNE 41 km/h 47 km/h 97% 0.51 mm 46 W/m2
09:54 8 °C 7 °C 976.63 hPa N 33 km/h 47 km/h 97% 0.51 mm 40 W/m2
09:59 8 °C 7 °C 976.63 hPa N 33 km/h 40 km/h 97% 0.51 mm 32 W/m2
10:04 8 °C 7 °C 976.97 hPa N 38 km/h 39 km/h 97% 0.51 mm 26 W/m2
10:09 8 °C 8 °C 976.97 hPa NNW 37 km/h 47 km/h 97% 0.51 mm 18 W/m2
10:14 8 °C 8 °C 976.97 hPa NNE 43 km/h 47 km/h 96% 0.51 mm 18 W/m2
10:19 8 °C 8 °C 976.97 hPa NNE 47 km/h 56 km/h 96% 0.51 mm 18 W/m2
10:24 8 °C 8 °C 976.97 hPa N 44 km/h 53 km/h 96% 0.51 mm 28 W/m2
10:29 8 °C 8 °C 977.31 hPa N 54 km/h 51 km/h 96% 0.76 mm 30 W/m2
10:34 8 °C 8 °C 977.31 hPa NNW 50 km/h 64 km/h 96% 0.76 mm 37 W/m2
10:39 8 °C 8 °C 976.97 hPa NNW 43 km/h 58 km/h 96% 0.76 mm 35 W/m2
10:44 8 °C 8 °C 976.97 hPa NNE 46 km/h 47 km/h 96% 1.02 mm 37 W/m2
10:49 8 °C 8 °C 977.31 hPa N 44 km/h 48 km/h 96% 0.76 mm 35 W/m2
10:54 8 °C 8 °C 977.31 hPa NNE 50 km/h 53 km/h 96% 1.02 mm 23 W/m2
10:59 8 °C 7 °C 977.31 hPa NNE 41 km/h 56 km/h 96% 1.02 mm 25 W/m2
11:04 8 °C 7 °C 977.31 hPa NNE 42 km/h 45 km/h 96% 1.02 mm 32 W/m2
11:09 8 °C 7 °C 977.31 hPa NNW 44 km/h 47 km/h 96% 1.02 mm 33 W/m2
11:14 8 °C 7 °C 977.31 hPa N 52 km/h 51 km/h 95% 1.02 mm 37 W/m2
11:19 8 °C 7 °C 977.31 hPa NNE 51 km/h 63 km/h 95% 1.02 mm 39 W/m2
11:24 8 °C 7 °C 977.31 hPa N 50 km/h 61 km/h 95% 1.02 mm 40 W/m2
11:29 8 °C 7 °C 977.31 hPa NNE 51 km/h 56 km/h 95% 1.02 mm 39 W/m2
11:34 8 °C 7 °C 977.65 hPa N 53 km/h 61 km/h 95% 1.02 mm 26 W/m2
11:39 8 °C 7 °C 977.65 hPa N 47 km/h 56 km/h 95% 1.27 mm 23 W/m2
11:44 8 °C 7 °C 977.65 hPa N 49 km/h 56 km/h 95% 1.27 mm 19 W/m2
11:49 8 °C 7 °C 977.65 hPa N 45 km/h 58 km/h 95% 1.27 mm 21 W/m2
11:54 8 °C 7 °C 977.31 hPa N 41 km/h 53 km/h 95% 1.52 mm 14 W/m2
11:59 8 °C 7 °C 976.97 hPa N 31 km/h 48 km/h 95% 1.52 mm 21 W/m2
12:04 8 °C 7 °C 976.97 hPa NW 31 km/h 39 km/h 95% 1.78 mm 47 W/m2
12:09 8 °C 7 °C 976.63 hPa N 30 km/h 32 km/h 96% 2.03 mm 54 W/m2
12:14 8 °C 7 °C 976.97 hPa NNW 30 km/h 35 km/h 96% 1.78 mm 54 W/m2
12:19 8 °C 7 °C 976.97 hPa N 33 km/h 42 km/h 96% 1.78 mm 32 W/m2
12:24 8 °C 7 °C 976.97 hPa N 38 km/h 45 km/h 95% 1.52 mm 32 W/m2
12:29 8 °C 7 °C 977.31 hPa N 44 km/h 43 km/h 95% 1.78 mm 33 W/m2
12:34 8 °C 7 °C 977.31 hPa N 35 km/h 56 km/h 95% 1.78 mm 33 W/m2
12:39 7 °C 7 °C 977.65 hPa WNW 33 km/h 45 km/h 94% 1.78 mm 26 W/m2
12:44 7 °C 6 °C 977.65 hPa NW 31 km/h 39 km/h 93% 2.03 mm 47 W/m2
12:49 6 °C 6 °C 977.99 hPa WNW 25 km/h 35 km/h 94% 2.03 mm 44 W/m2
12:54 6 °C 6 °C 977.99 hPa WNW 23 km/h 32 km/h 95% 1.78 mm 44 W/m2
12:59 6 °C 6 °C 977.99 hPa WNW 22 km/h 24 km/h 95% 1.52 mm 62 W/m2
13:04 6 °C 6 °C 978.33 hPa WNW 19 km/h 27 km/h 96% 1.27 mm 69 W/m2
13:09 6 °C 6 °C 978.33 hPa W 22 km/h 23 km/h 95% 1.02 mm 116 W/m2
13:14 7 °C 6 °C 978.33 hPa NNW 27 km/h 29 km/h 94% 1.02 mm 128 W/m2
13:19 7 °C 6 °C 978.33 hPa NNW 32 km/h 32 km/h 93% 1.02 mm 128 W/m2
13:24 7 °C 6 °C 978.33 hPa WNW 32 km/h 35 km/h 93% 1.02 mm 132 W/m2
13:29 7 °C 6 °C 978.67 hPa WNW 24 km/h 37 km/h 92% 1.02 mm 100 W/m2
13:34 7 °C 6 °C 978.67 hPa WNW 22 km/h 31 km/h 92% 0.76 mm 90 W/m2
13:39 7 °C 6 °C 979.01 hPa NW 26 km/h 26 km/h 92% 0.51 mm 86 W/m2
13:44 7 °C 6 °C 979.01 hPa NW 34 km/h 32 km/h 91% 0.25 mm 58 W/m2
13:49 7 °C 6 °C 979.01 hPa NNW 29 km/h 40 km/h 91% 0.25 mm 56 W/m2
13:54 7 °C 6 °C 979.01 hPa NNW 30 km/h 47 km/h 91% 0 mm 65 W/m2
13:59 7 °C 6 °C 979.34 hPa WNW 29 km/h 35 km/h 91% 0 mm 63 W/m2
14:04 7 °C 6 °C 979.34 hPa WNW 30 km/h 37 km/h 91% 0 mm 76 W/m2
14:09 7 °C 6 °C 979.34 hPa NW 28 km/h 32 km/h 92% 0 mm 58 W/m2
14:14 7 °C 6 °C 979.01 hPa WNW 33 km/h 39 km/h 92% 0 mm 76 W/m2
14:19 7 °C 6 °C 979.34 hPa NW 27 km/h 39 km/h 92% 0 mm 76 W/m2
14:24 7 °C 6 °C 979.34 hPa WNW 33 km/h 34 km/h 91% 0 mm 54 W/m2
14:29 7 °C 6 °C 979.34 hPa NW 35 km/h 43 km/h 90% 0 mm 67 W/m2
14:34 7 °C 6 °C 979.34 hPa NW 30 km/h 40 km/h 90% 0 mm 107 W/m2
14:39 7 °C 6 °C 979.68 hPa WNW 30 km/h 35 km/h 90% 0 mm 97 W/m2
14:44 7 °C 6 °C 980.02 hPa WNW 30 km/h 34 km/h 90% 0 mm 72 W/m2
14:49 7 °C 6 °C 980.02 hPa NW 27 km/h 39 km/h 90% 0 mm 65 W/m2
14:54 7 °C 6 °C 979.68 hPa WNW 27 km/h 29 km/h 91% 0 mm 65 W/m2
14:59 7 °C 6 °C 979.68 hPa NW 24 km/h 32 km/h 90% 0 mm 44 W/m2
15:04 7 °C 6 °C 979.68 hPa NW 28 km/h 32 km/h 90% 0 mm 32 W/m2
15:09 7 °C 6 °C 980.02 hPa NW 23 km/h 35 km/h 90% 0 mm 47 W/m2
15:14 7 °C 6 °C 979.68 hPa NNW 29 km/h 29 km/h 90% 0 mm 60 W/m2
15:19 7 °C 6 °C 980.02 hPa W 32 km/h 34 km/h 89% 0 mm 62 W/m2
15:24 7 °C 6 °C 979.68 hPa NW 32 km/h 35 km/h 88% 0 mm 70 W/m2
15:29 7 °C 5 °C 980.02 hPa NW 35 km/h 37 km/h 86% 0 mm 54 W/m2
15:34 7 °C 5 °C 980.36 hPa NW 32 km/h 39 km/h 84% 0 mm 42 W/m2
15:39 7 °C 4 °C 980.36 hPa NW 34 km/h 35 km/h 81% 0 mm 35 W/m2
15:44 7 °C 4 °C 980.36 hPa WNW 29 km/h 43 km/h 80% 0 mm 47 W/m2
15:49 7 °C 4 °C 980.7 hPa NW 25 km/h 42 km/h 80% 0 mm 39 W/m2
15:54 7 °C 4 °C 980.7 hPa W 19 km/h 34 km/h 81% 0 mm 37 W/m2
15:59 7 °C 4 °C 980.7 hPa WNW 18 km/h 23 km/h 82% 0 mm 33 W/m2
16:04 7 °C 4 °C 980.7 hPa NW 23 km/h 23 km/h 82% 0 mm 28 W/m2
16:09 7 °C 4 °C 980.7 hPa NW 23 km/h 35 km/h 82% 0 mm 26 W/m2
16:14 7 °C 4 °C 981.04 hPa WNW 26 km/h 24 km/h 81% 0 mm 23 W/m2
16:19 7 °C 4 °C 981.04 hPa WNW 24 km/h 32 km/h 81% 0 mm 25 W/m2
16:24 7 °C 4 °C 980.7 hPa WNW 21 km/h 32 km/h 81% 0 mm 18 W/m2
16:29 7 °C 4 °C 980.7 hPa NW 24 km/h 32 km/h 81% 0 mm 14 W/m2
16:34 7 °C 4 °C 981.04 hPa W 18 km/h 27 km/h 81% 0 mm 12 W/m2
16:39 7 °C 4 °C 981.38 hPa WNW 18 km/h 23 km/h 82% 0 mm 11 W/m2
16:44 7 °C 4 °C 981.38 hPa W 22 km/h 21 km/h 83% 0 mm 11 W/m2
16:49 7 °C 4 °C 981.38 hPa WNW 22 km/h 29 km/h 82% 0 mm 11 W/m2
16:54 7 °C 4 °C 981.38 hPa NW 24 km/h 24 km/h 81% 0 mm 9 W/m2
16:59 7 °C 4 °C 981.38 hPa WNW 25 km/h 27 km/h 81% 0 mm 9 W/m2
17:04 7 °C 4 °C 981.38 hPa NW 19 km/h 27 km/h 81% 0 mm 7 W/m2
17:09 7 °C 4 °C 981.38 hPa NW 21 km/h 21 km/h 82% 0 mm 0 W/m2
17:14 7 °C 4 °C 981.38 hPa WNW 22 km/h 24 km/h 82% 0 mm 0 W/m2
17:19 7 °C 4 °C 981.38 hPa WNW 25 km/h 26 km/h 82% 0 mm 0 W/m2
17:24 7 °C 4 °C 981.38 hPa WNW 23 km/h 34 km/h 81% 0 mm 0 W/m2
17:29 7 °C 4 °C 981.04 hPa WNW 29 km/h 26 km/h 80% 0 mm 5 W/m2
17:34 7 °C 4 °C 981.38 hPa W 19 km/h 39 km/h 80% 0 mm 5 W/m2
17:39 7 °C 4 °C 981.38 hPa WNW 18 km/h 29 km/h 81% 0 mm 5 W/m2
17:44 7 °C 4 °C 981.38 hPa W 15 km/h 23 km/h 81% 0 mm 0 W/m2
17:49 7 °C 4 °C 981.38 hPa WNW 18 km/h 19 km/h 82% 0 mm 0 W/m2
17:54 7 °C 4 °C 981.38 hPa WNW 16 km/h 24 km/h 83% 0 mm 0 W/m2
17:59 7 °C 5 °C 981.38 hPa NNW 20 km/h 19 km/h 85% 0 mm 0 W/m2
18:04 7 °C 5 °C 981.38 hPa NW 28 km/h 23 km/h 86% 0 mm 0 W/m2
18:09 7 °C 5 °C 981.38 hPa NNW 26 km/h 32 km/h 86% 0 mm 0 W/m2
18:14 7 °C 5 °C 981.38 hPa WNW 27 km/h 32 km/h 86% 0 mm 0 W/m2
18:19 7 °C 5 °C 981.38 hPa WNW 27 km/h 29 km/h 85% 0 mm 0 W/m2
18:24 7 °C 5 °C 981.38 hPa W 23 km/h 32 km/h 85% 0 mm 0 W/m2
18:29 7 °C 5 °C 981.38 hPa NW 23 km/h 32 km/h 84% 0 mm 0 W/m2
18:34 7 °C 4 °C 981.38 hPa WNW 24 km/h 29 km/h 84% 0 mm 0 W/m2
18:39 7 °C 4 °C 981.38 hPa WNW 27 km/h 32 km/h 84% 0 mm 0 W/m2
18:44 7 °C 4 °C 981.71 hPa WNW 25 km/h 32 km/h 84% 0 mm 0 W/m2
18:49 7 °C 4 °C 981.38 hPa W 24 km/h 29 km/h 84% 0 mm 0 W/m2
18:54 7 °C 4 °C 981.38 hPa WNW 22 km/h 32 km/h 84% 0 mm 0 W/m2
18:59 7 °C 4 °C 981.38 hPa NW 26 km/h 32 km/h 84% 0 mm 0 W/m2
19:04 7 °C 4 °C 981.38 hPa NW 26 km/h 26 km/h 84% 0 mm 0 W/m2
19:09 7 °C 5 °C 981.38 hPa WNW 20 km/h 32 km/h 84% 0 mm 0 W/m2
19:14 7 °C 5 °C 981.38 hPa NNW 31 km/h 26 km/h 85% 0 mm 0 W/m2
19:19 7 °C 5 °C 981.04 hPa WNW 30 km/h 35 km/h 85% 0 mm 0 W/m2
19:24 7 °C 5 °C 981.04 hPa NW 24 km/h 35 km/h 86% 0 mm 0 W/m2
19:29 7 °C 5 °C 981.04 hPa N 27 km/h 29 km/h 86% 0 mm 0 W/m2
19:34 7 °C 5 °C 980.7 hPa NW 24 km/h 34 km/h 86% 0 mm 0 W/m2
19:39 7 °C 5 °C 980.7 hPa NNW 26 km/h 32 km/h 86% 0 mm 0 W/m2
19:44 7 °C 5 °C 981.04 hPa NW 30 km/h 32 km/h 86% 0 mm 0 W/m2
19:49 7 °C 5 °C 981.04 hPa WNW 23 km/h 32 km/h 86% 0 mm 0 W/m2
19:54 7 °C 5 °C 980.7 hPa NW 23 km/h 29 km/h 86% 0 mm 0 W/m2
19:59 7 °C 5 °C 980.7 hPa WNW 18 km/h 29 km/h 86% 0 mm 0 W/m2
20:04 7 °C 5 °C 980.7 hPa WNW 26 km/h 27 km/h 86% 0 mm 0 W/m2
20:09 7 °C 5 °C 980.7 hPa NW 21 km/h 32 km/h 86% 0 mm 0 W/m2
20:14 7 °C 5 °C 981.04 hPa WNW 21 km/h 24 km/h 86% 0 mm 0 W/m2
20:19 7 °C 5 °C 981.04 hPa WNW 22 km/h 24 km/h 86% 0 mm 0 W/m2
20:24 7 °C 5 °C 981.04 hPa NW 16 km/h 32 km/h 86% 0 mm 0 W/m2
20:29 7 °C 5 °C 980.7 hPa NW 19 km/h 21 km/h 86% 0 mm 0 W/m2
Compliments of Weather Underground - 2 mb